Meteo Giornale » Osservazioni meteo Gran Bretagna » Stansted

ore: 14:50 - Osservazioni Meteo Stansted
Lat. 51° 53' N Lon. 0° 14' E Alt. 106 metri s.l.m.

molto_nuvoloso Europe/London

17 °C

Molto Nuvoloso

Temp. 24 Ore

9 °C

17 °C

Sud

35.2 Km/h

Dew point 11 °C

Umidità 67 %

Visibilità  10 Km

Il sole sorge alle ore 06:53

Il sole tramonta alle ore 18:45

Data e Ora Cielo e Fenomeni T °C DP °C Um. % Pres. hPa Vis. km Vento km/h
Oggi h: 14:50 molto_nuvoloso Molto Nuvoloso 17 11 67 1015 10 S 35.2
Oggi h: 14:20 nuvoloso Nuvoloso 17 12 72 1015 10 S 27.8
Oggi h: 13:50 nuvoloso Nuvoloso 17 12 72 1015 10 S 25.9
Oggi h: 13:20 coperto_pioggia Pioggia Debole 16 13 82 1016 10 S 22.2
Oggi h: 12:50 coperto_pioggia Pioggia Debole 16 12 77 1016 10 S 27.8
Oggi h: 12:20 molto_nuvoloso Molto Nuvoloso 17 12 72 1017 10 S 27.8
Oggi h: 11:50 nuvoloso Nuvoloso 17 11 67 1017 10 S 29.6
Oggi h: 11:20 nuvoloso Nuvoloso 16 12 77 1017 10 S 27.8
Oggi h: 10:50 sereno Sereno 16 11 72 1018 10 S 27.8
Oggi h: 10:20 sereno Sereno 15 11 76 1018 10 S 22.2
Oggi h: 09:50 sereno Sereno 14 11 82 1018 10 S 18.5
Oggi h: 09:20 sereno Sereno 13 11 87 1018 10 S/SE 18.5
Oggi h: 08:50 sereno Sereno 12 10 87 1018 10 S/SE 13
Oggi h: 08:20 coperto_pioggia Pioggia Debole 11 10 93 1018 10 S 14.8
Oggi h: 07:50 sereno Sereno 11 9 87 1018 10 S 14.8
Oggi h: 07:20 sereno Sereno 10 9 93 1018 10 S 13
Oggi h: 06:50 sereno Sereno 10 9 93 1018 10 S 13
Oggi h: 06:20 sereno Sereno 10 8 87 1019 10 S 11.1
Oggi h: 05:50 sereno Sereno 9 8 93 1019 10 S 9.3
Oggi h: 04:50 sereno Sereno 9 8 93 1019 10 S 9.3
Oggi h: 04:20 sereno Sereno 9 7 87 1019 10 S 9.3
Oggi h: 03:50 sereno Sereno 9 8 93 1018 10 S 11.1
Oggi h: 03:20 sereno Sereno 9 8 93 1018 10 S 9.3
Oggi h: 02:50 sereno Sereno 9 8 93 1019 10 S/SO 11.1
Oggi h: 02:20 sereno Sereno 9 8 93 1019 10 S/SO 13
Oggi h: 01:50 sereno Sereno 9 7 87 1019 10 S/SO 11.1
Oggi h: 01:20 sereno Sereno 9 7 87 1019 10 SO 13
Oggi h: 00:50 sereno Sereno 10 8 87 1019 10 SO 13
Oggi h: 00:20 sereno Sereno 10 8 87 1018 10 SO 13
Ieri h: 23:50 sereno Sereno 11 8 81 1018 10 S/SO 13
Ieri h: 23:20 sereno Sereno 11 8 81 1018 10 S/SO 13
Ieri h: 22:50 sereno Sereno 10 8 87 1018 10 S/SO 14.8
Ieri h: 22:20 sereno Sereno 9 6 81 1018 10 S/SO 14.8
Ieri h: 21:50 sereno Sereno 10 7 81 1017 10 SO 14.8
Ieri h: 21:20 sereno Sereno 11 7 76 1017 10 SO 16.7
Ieri h: 20:50 sereno Sereno 10 7 81 1016 10 SO 18.5
Ieri h: 20:20 sereno Sereno 10 7 81 1016 10 SO 14.8
Ieri h: 19:50 sereno Sereno 14 7 62 1016 10 O/SO 14.8
Ieri h: 19:20 sereno Sereno 13 7 66 1015 10 O/SO 11.1
Ieri h: 18:50 coperto_pioggia Pioggia Debole 15 7 58 1015 10 O/SO 16.7
Ieri h: 18:20 sereno Sereno 15 7 58 1014 10 SO 18.5
Ieri h: 17:50 sereno Sereno 16 7 55 1014 10 SO 20.3
Ieri h: 17:20 sereno Sereno 16 7 55 1013 10 O/SO 18.5
Ieri h: 16:50 nuvoloso Nuvoloso 17 7 51 1013 10 O/SO 22.2
Ieri h: 16:20 nuvoloso Nuvoloso 16 8 58 1012 10 O/SO 22.2
Ieri h: 15:50 nuvoloso Nuvoloso 17 9 59 1012 10 O/SO 24